BAV145 WADD-WBKK

Flight info

Callsign BAV145
Flight time N/A
Altitude 38000
Route DOBMA/N0489F400 M522 ELANG/N0491F390 M522 ELADO
Aircraft B789/H-SDE1E2E3FGHIJ2J3J4J5M1RWXY/LB1D1

Departure

Time N/A
Airport Denpasar I Gusti Ngurah Rai International Airport (WADD)

Arrival

Time 2026-05-08 08:03
Airport Kota Kinabalu International Airport (WBKK)
Time Latitude Longitude Altitude Speed Heading
2026-05-08 08:01 5.94518 116.05457 46 ft 142 kts 199°
2026-05-08 08:02 5.93922 116.05211 33 ft 110 kts 205°
2026-05-08 08:02 5.93393 116.04982 34 ft 61 kts 203°
2026-05-08 08:03 5.93075 116.04844 34 ft 46 kts 200°
2026-05-08 08:03 5.92877 116.04769 34 ft 21 kts 195°
2026-05-08 08:03 5.92733 116.04754 34 ft 21 kts 177°
2026-05-08 08:03 5.92596 116.04768 34 ft 17 kts 173°
2026-05-08 08:04 5.92480 116.04773 34 ft 17 kts 193°
2026-05-08 08:04 5.92380 116.04736 34 ft 10 kts 203°
2026-05-08 08:04 5.92309 116.04707 34 ft 12 kts 202°
2026-05-08 08:04 5.92232 116.04674 34 ft 13 kts 203°
2026-05-08 08:05 5.92149 116.04638 34 ft 14 kts 203°
2026-05-08 08:05 5.92059 116.04600 34 ft 14 kts 202°
2026-05-08 08:05 5.91967 116.04562 34 ft 15 kts 203°
2026-05-08 08:05 5.91874 116.04523 34 ft 11 kts 202°
2026-05-08 08:06 5.91810 116.04495 34 ft 7 kts 210°
2026-05-08 08:06 5.91787 116.04457 34 ft 5 kts 264°
2026-05-08 08:06 5.91792 116.04428 34 ft 4 kts 286°
2026-05-08 08:06 5.91792 116.04427 34 ft 0 kts 287°
2026-05-08 08:10 5.91793 116.04424 34 ft 2 kts 287°
2026-05-08 08:10 5.91800 116.04405 34 ft 4 kts 291°
2026-05-08 08:10 5.91816 116.04373 34 ft 6 kts 301°
2026-05-08 08:10 5.91853 116.04345 34 ft 7 kts 341°
2026-05-08 08:11 5.91907 116.04349 34 ft 9 kts 19°
2026-05-08 08:11 5.91972 116.04376 34 ft 12 kts 22°
2026-05-08 08:11 5.92064 116.04415 34 ft 17 kts 24°
2026-05-08 08:11 5.92183 116.04465 34 ft 20 kts 23°
2026-05-08 08:12 5.92315 116.04522 34 ft 20 kts 23°
2026-05-08 08:12 5.92417 116.04566 34 ft 13 kts 27°
2026-05-08 08:12 5.92467 116.04619 34 ft 10 kts 75°
2026-05-08 08:12 5.92456 116.04683 34 ft 10 kts 108°
2026-05-08 08:13 5.92430 116.04747 34 ft 10 kts 114°
2026-05-08 08:13 5.92404 116.04805 34 ft 7 kts 112°
2026-05-08 08:13 5.92380 116.04837 34 ft 6 kts 123°
2026-05-08 08:13 5.92375 116.04869 34 ft 1 kts 82°
2026-05-08 08:14 5.92379 116.04880 34 ft 2 kts 70°
2026-05-08 08:14 5.92386 116.04901 34 ft 4 kts 70°
2026-05-08 08:14 5.92392 116.04917 34 ft 0 kts 70°
2026-05-08 08:14 5.92395 116.04926 34 ft 2 kts 70°
2026-05-08 08:15 5.92400 116.04939 34 ft 2 kts 70°
2026-05-08 08:15 5.92402 116.04945 34 ft 0 kts 70°
2026-05-08 08:15 5.92403 116.04946 34 ft 0 kts 70°
2026-05-08 08:15 5.92403 116.04947 34 ft 0 kts 70°